TimeMST,TemperatureF,Dew PointF,Humidity,Sea Level PressureIn,VisibilityMPH,Wind Direction,Wind SpeedMPH,Gust SpeedMPH,PrecipitationIn,Events,Conditions,WindDirDegrees,DateUTC
12:52 AM,19.9,14.0,78,30.17,10.0,WNW,8.1,-,N/A,,Clear,300,2013-02-25 07:52:00
1:52 AM,21.9,14.0,72,30.16,10.0,WNW,8.1,-,N/A,,Clear,290,2013-02-25 08:52:00
2:52 AM,19.4,12.2,74,30.04,10.0,West,6.9,-,N/A,,Clear,280,2013-02-25 09:52:00
3:52 AM,16.0,10.0,77,30.15,10.0,WNW,3.5,-,N/A,,Clear,290,2013-02-25 10:52:00
4:52 AM,12.0,7.0,80,30.16,10.0,WNW,4.6,-,N/A,,Clear,300,2013-02-25 11:52:00
5:52 AM,12.0,6.1,77,30.15,10.0,WNW,5.8,-,N/A,,Clear,300,2013-02-25 12:52:00
6:52 AM,10.9,5.0,77,30.16,10.0,Calm,Calm,-,N/A,,Clear,0,2013-02-25 13:52:00
7:52 AM,21.9,14.0,72,30.13,10.0,Calm,Calm,-,N/A,,Clear,0,2013-02-25 14:52:00
8:52 AM,25.0,17.1,72,30.12,10.0,SE,4.6,-,N/A,,Clear,140,2013-02-25 15:52:00
9:52 AM,32.0,16.0,52,30.08,10.0,SE,5.8,-,N/A,,Clear,140,2013-02-25 16:52:00
10:52 AM,36.0,18.0,48,30.04,10.0,SE,10.4,-,N/A,,Clear,140,2013-02-25 17:52:00
11:52 AM,43.0,16.0,34,30.00,10.0,SSE,15.0,-,N/A,,Clear,160,2013-02-25 18:52:00
12:52 PM,46.9,10.9,23,29.94,10.0,SSE,17.3,23.0,N/A,,Clear,160,2013-02-25 19:52:00
1:52 PM,48.9,7.0,18,29.91,10.0,South,20.7,25.3,N/A,,Clear,170,2013-02-25 20:52:00
2:52 PM,48.9,1.9,15,29.88,10.0,SSE,20.7,27.6,N/A,,Clear,160,2013-02-25 21:52:00
3:52 PM,46.0,10.0,23,29.88,10.0,SSE,19.6,29.9,N/A,,Clear,160,2013-02-25 22:52:00
4:52 PM,42.1,12.0,29,29.89,10.0,South,20.7,-,N/A,,Clear,170,2013-02-25 23:52:00
5:52 PM,36.0,14.0,41,29.91,10.0,South,13.8,-,N/A,,Clear,170,2013-02-26 00:52:00
6:52 PM,33.1,15.1,48,29.92,10.0,South,10.4,-,N/A,,Clear,190,2013-02-26 01:52:00
7:52 PM,30.9,14.0,50,29.89,10.0,South,8.1,-,N/A,,Clear,190,2013-02-26 02:52:00
8:52 PM,26.1,12.9,58,29.90,10.0,SE,4.6,-,N/A,,Clear,140,2013-02-26 03:52:00
9:52 PM,21.9,12.9,68,29.90,10.0,ESE,3.5,-,N/A,,Clear,110,2013-02-26 04:52:00
10:52 PM,23.0,14.0,68,29.88,10.0,Calm,Calm,-,N/A,,Clear,0,2013-02-26 05:52:00
11:52 PM,17.1,10.9,77,29.88,10.0,Calm,Calm,-,N/A,,Clear,0,2013-02-26 06:52:00